This is the latest recevied weather packets stored in our database for station/object N9WHM. If no packets are shown the sender has not sent any weather packets the latest 10 day(s).
| Time | Temp. | Humidity | Pressure | Rain* | Wind** | Luminosity | Snow |
|---|---|---|---|---|---|---|---|
| 1777479534 | 11.11° C | 59% | 1021.5 hPa | 0 mm | - | 447 W/m² | - |
| 1777479230 | 11.11° C | 56% | 1021.5 hPa | 0 mm | - | 674 W/m² | - |
| 1777478927 | 11.11° C | 63% | 1021.6 hPa | 0 mm | - | 173 W/m² | - |
| 1777478623 | 10.56° C | 64% | 1021.3 hPa | 0 mm | - | 641 W/m² | - |
| 1777478320 | 10.56° C | 61% | 1021.4 hPa | 0 mm | - | 591 W/m² | - |
| 1777477106 | 10° C | 69% | 1021.5 hPa | 0 mm | - | 523 W/m² | - |
| 1777476804 | 10° C | 71% | 1021.4 hPa | 0 mm | - | 507 W/m² | - |
| 1777476501 | 10° C | 72% | 1021.4 hPa | 0 mm | - | 493 W/m² | - |
| 1777476197 | 10° C | 73% | 1021.5 hPa | 0 mm | - | 479 W/m² | - |
| 1777475893 | 9.44° C | 75% | 1021.4 hPa | 0 mm | - | 463 W/m² | - |
| 1777474677 | 8.89° C | 78% | 1021.6 hPa | 0 mm | - | 449 W/m² | - |
| 1777473160 | 7.78° C | 83% | 1021.7 hPa | 0 mm | - | 410 W/m² | - |
| 1777472250 | 6.67° C | 86% | 1021.8 hPa | 0 mm | - | 366 W/m² | - |
| 1777471644 | 7.22° C | 85% | 1021.7 hPa | 0 mm | - | 323 W/m² | - |
| 1777471340 | 6.67° C | 86% | 1021.5 hPa | 0 mm | - | 323 W/m² | - |
| 1777471036 | 6.67° C | 88% | 1021.7 hPa | 0 mm | - | 255 W/m² | - |
| 1777469823 | 6.11° C | 91% | 1021.6 hPa | 0 mm | - | 160 W/m² | - |
| 1777469518 | 5° C | 93% | 1021.7 hPa | 0 mm | - | 127 W/m² | - |
| 1777469213 | 5° C | 95% | 1021.4 hPa | 0 mm | - | 114 W/m² | - |
| 1777468913 | 5° C | 96% | 1021.4 hPa | 0 mm | - | 107 W/m² | - |
| 1777468610 | 4.44° C | 96% | 1021.5 hPa | 0 mm | - | 98 W/m² | - |
| 1777468307 | 4.44° C | 97% | 1021.3 hPa | 0 mm | - | 90 W/m² | - |
| 1777468003 | 4.44° C | 97% | 1021.6 hPa | 0 mm | - | 71 W/m² | - |
| 1777467394 | 3.89° C | 98% | 1021.4 hPa | 0 mm | - | 54 W/m² | - |
| 1777467090 | 3.89° C | 98% | 1021.5 hPa | 0 mm | - | 52 W/m² | - |
* Rain latest hour (hover to see other rain measurements)
** Current wind speed in m/s (hover to see current wind gust speed)